Location: Kellogg
(38.0159°N, 90.0546°W)
Time: 22:16:32
(UTC+00:00)

Vanguard 2 - Pass Details

Date: 24 September 2024
Orbit: 552 x 2910 km, 32.9° (Epoch: 09 October)

Event Time Altitude Azimuth Distance (km) Brightness Sun altitude
Rises 08:37:56 0° 260° (W) 2,711 - -36.7°
Reaches altitude 10° 08:40:05 10° 253° (WSW) 1,836 - -36.4°
Maximum altitude 08:43:54 44° 180° (S) 859 - -35.8°
Exits shadow 08:47:33 16° 113° (ESE) 1,857 9.8 -35.2°
Drops below altitude 10° 08:48:45 10° 109° (ESE) 2,325 10.4 -35.0°
Sets 08:51:48 0° 103° (ESE) 3,548 11.5 -34.4°
